Location: Caledonia
(42.3690°N, 88.8930°W)
Time: 21:09:43
(UTC-06:00)

Hubble Space Telescope - Visible Passes

Search period start: 20 February 2018 00:00
Search period end: 02 March 2018 00:00
Orbit: 537 x 541 km, 28.5° (Epoch: 20 February)

Date Brightness Start Highest point End Pass type
(mag) Time Alt. Az. Time Alt. Az. Time Alt. Az.
21 Feb 3.3 06:11:16 10° SSW 06:12:45 12° S 06:14:13 10° SSE visible
22 Feb 3.3 06:00:49 10° SSW 06:02:20 12° S 06:03:51 10° SSE visible
23 Feb 3.2 05:50:29 10° SSW 05:51:55 12° S 05:53:20 10° SSE visible
24 Feb 3.2 05:40:17 10° SSW 05:41:29 11° S 05:42:42 10° SSE visible
25 Feb 3.2 05:30:20 10° SSW 05:31:04 10° S 05:31:48 10° S visible
